SCP
0 0 0 0 0 0 0 0 0 0 0 0 0 0 0 0 0 0 0 0 0 1 1 1 1 1 1 1 1 1 1 1 1 2 2 2 1 1 1 1 0 0 0 0
0 0 0 0 0 0 0 0 0 0 0 0 0 0 0 0 0 0 0 0 0 1 1 1 1 1 1 1 1 1 1 1 2 2 2 2 2 1 1 1 1 0 0 0
0 0 0 0 0 0 0 0 0 0 0 0 0 0 0 0 0 0 0 0 0 1 1 1 1 1 1 1 1 1 1 1 1 2 2 2 2 2 1 1 1 1 0 0
0 0 0 0 0 0 0 0 0 0 0 0 0 0 0 0 0 0 0 0 0 0 1 1 1 1 1 1 1 1 1 1 1 2 2 2 2 2 2 1 1 1 1 1
0 0 0 0 0 0 0 0 0 0 0 0 0 0 0 0 0 0 0 0 0 0 0 1 1 1 1 1 1 1 1 1 1 1 1 2 2 2 2 1 1 1 1 1
0 0 0 0 0 0 0 0 0 0 0 0 0 0 0 0 0 0 0 0 0 0 1 1 1 1 1 1 1 1 1 1 1 1 1 1 1 1 1 1 2 2 1 1
0 0 0 0 0 0 0 0 0 0 0 0 0 0 0 0 0 0 0 0 0 1 1 1 1 1 1 1 1 1 2 2 2 1 1 1 1 1 1 1 2 2 2 2
0 0 0 0 0 0 0 0 0 0 0 0 0 0 0 0 0 0 0 0 1 1 1 1 1 1 1 1 1 1 2 2 2 2 1 1 1 1 2 2 1 1 2 2
0 0 0 1 1 1 0 0 0 0 0 0 0 0 0 0 0 0 0 0 1 1 1 1 1 0 0 1 1 1 2 2 2 2 2 2 2 2 2 2 1 1 1 1
0 0 0 1 1 1 1 1 1 0 0 0 0 0 0 0 0 0 0 0 1 1 1 1 1 1 1 1 1 1 2 2 2 2 2 2 2 2 2 2 2 1 1 1
0 0 0 1 1 1 1 1 1 1 0 0 0 0 0 0 0 0 0 0 0 0 1 1 1 1 1 1 1 1 2 2 2 2 2 2 2 2 2 2 2 2 1 1
0 0 0 0 1 1 1 1 1 1 0 0 0 0 0 0 0 0 0 0 0 0 1 1 1 1 1 1 1 1 1 2 2 2 2 2 2 2 2 2 2 2 2 1
0 0 0 0 0 1 1 1 0 0 0 0 0 0 0 0 0 0 0 0 1 1 1 1 1 1 1 1 1 1 1 2 2 3 3 3 2 2 2 2 2 2 2 2
0 0 0 0 0 0 0 0 0 0 0 0 0 0 0 0 0 0 1 1 1 1 1 1 1 1 1 1 1 1 1 1 2 3 3 3 2 2 2 2 2 2 2 2
0 0 0 0 0 0 0 0 0 0 0 0 0 0 0 0 0 1 1 1 1 1 1 1 1 1 1 1 1 1 1 1 1 2 3 3 2 2 2 2 1 2 2 2
0 0 0 0 0 0 0 0 0 0 0 0 0 0 0 0 0 0 0 0 0 1 1 1 1 1 1 1 1 1 1 1 1 2 2 3 3 3 2 2 1 2 2 2
0 0 0 0 0 0 0 0 0 0 0 0 0 0 0 0 0 0 0 0 0 0 0 0 1 1 1 1 1 1 1 1 1 1 2 2 3 3 3 2 2 2 2 3
0 0 0 0 0 0 0 0 0 0 0 0 0 0 0 0 0 0 0 0 0 0 0 0 0 1 1 1 1 1 1 1 1 1 1 2 3 3 3 3 3 3 3 3
0 0 0 0 0 0 0 0 0 0 0 0 0 0 0 0 0 0 0 0 0 0 0 0 0 0 0 1 1 1 2 1 1 1 1 1 2 3 3 3 3 3 4 4
0 0 0 0 0 0 0 0 0 0 0 0 0 0 0 0 0 0 0 0 0 0 0 0 0 0 0 1 1 1 2 1 1 1 1 1 2 3 3 3 3 3 4 4
0 0 0 0 0 0 0 0 0 0 0 0 0 0 0 0 0 0 0 0 0 0 0 0 0 0 0 0 1 1 1 1 1 1 1 1 2 2 3 3 3 3 3 4
0 0 0 0 0 0 0 0 0 0 0 0 0 0 0 0 0 0 0 0 0 0 0 0 0 0 0 0 1 1 1 1 1 1 1 1 1 1 2 3 4 3 3 3
0 0 0 0 0 0 0 0 0 0 0 0 0 0 0 0 0 0 0 0 0 0 0 0 0 0 0 0 0 1 1 1 0 0 0 0 0 1 1 3 4 3 3 3
0 0 0 0 0 0 0 0 0 0 0 0 0 0 0 0 0 0 0 0 0 0 0 0 0 0 0 0 0 0 0 0 0 0 0 0 0 0 1 2 3 3 3 3
0 0 0 0 0 0 0 0 0 0 0 0 0 0 0 0 0 0 0 0 0 0 0 0 0 0 0 0 0 0 0 0 0 0 0 0 0 0 1 2 3 3 3 2
0 0 0 0 0 0 0 0 0 0 0 0 0 0 0 0 0 0 0 0 0 0 0 0 0 0 0 0 0 0 0 0 0 0 0 0 0 0 1 2 2 3 2 2
Wind_Speed
2 4 3 1 1 2 1 2 3 2 0 3 4 4 3 3 4 4 4 4 5 5 6 6 6 6 5 4 5 4 5 5 4 3 3 3 3 2 2 2 2 3 2 2
5 4 1 0 1 2 3 3 3 1 0 3 4 4 3 4 5 4 4 4 4 4 6 6 7 7 6 5 5 5 5 5 5 3 3 2 2 2 1 1 2 2 2 2
4 1 2 3 4 4 5 5 4 3 2 4 4 4 4 3 3 3 3 3 3 3 5 6 7 7 6 6 6 5 5 5 5 5 3 3 3 2 3 2 2 2 2 3
3 2 3 4 4 5 4 2 4 4 5 3 4 4 2 2 2 2 2 3 2 3 4 5 6 6 6 6 5 6 5 5 6 5 4 4 3 3 3 2 2 2 2 2
2 2 4 5 5 5 3 1 3 5 6 6 5 5 1 1 2 1 1 2 2 2 3 4 5 5 5 5 5 5 5 5 6 6 5 5 4 3 2 3 3 3 2 3
2 2 3 3 1 3 3 3 4 5 6 6 3 5 1 1 2 2 0 1 2 2 2 3 3 4 3 3 4 4 5 5 6 6 6 6 5 4 4 4 3 3 3 3
3 3 2 2 3 4 5 5 4 4 4 2 1 4 1 4 3 3 2 0 1 2 2 3 3 3 3 3 4 5 5 5 6 6 6 6 6 5 5 4 4 3 3 3
4 4 3 3 4 4 5 6 5 4 3 1 3 3 2 4 3 2 2 2 2 2 2 2 2 3 3 4 4 4 4 5 5 5 5 5 5 4 3 4 3 3 3 3
3 2 2 1 2 4 4 4 5 6 5 5 3 2 3 3 3 4 4 4 3 3 2 2 2 2 3 3 4 4 4 4 4 5 4 4 4 4 3 3 4 3 3 3
4 4 2 2 4 1 3 2 4 5 5 5 4 4 1 2 2 3 4 3 3 2 2 2 2 2 2 2 2 3 3 4 4 4 4 4 4 4 3 3 3 4 3 3
5 5 3 4 4 4 4 5 5 5 5 5 4 1 2 0 1 1 2 3 2 2 2 2 2 2 2 2 2 2 2 3 3 4 4 5 4 4 4 4 4 3 4 4
3 5 5 4 1 3 5 5 6 6 5 6 6 1 4 1 1 1 2 2 2 2 2 2 2 2 2 1 1 1 1 2 2 3 4 4 4 4 5 5 4 4 4 4
2 6 5 5 6 5 4 4 5 6 6 6 7 2 5 2 2 1 1 2 2 2 2 2 2 2 1 1 0 1 0 1 1 2 3 3 3 4 4 4 4 4 4 4
5 6 7 6 3 2 4 5 6 8 7 7 8 7 3 2 1 1 0 0 1 2 2 2 1 2 2 1 0 0 0 1 1 1 1 2 2 3 3 4 4 4 4 4
5 7 6 6 4 5 7 7 7 9 10 10 8 8 6 4 3 2 2 1 0 1 1 1 0 1 1 1 1 1 1 0 1 1 1 1 1 2 2 3 3 3 3 4
4 6 6 7 6 7 9 9 9 10 10 11 10 9 4 3 3 3 3 3 2 1 1 1 1 1 1 1 1 1 1 0 0 1 1 1 2 1 2 2 2 2 3 4
4 6 7 7 5 7 9 7 9 8 8 9 10 7 3 3 3 4 3 3 2 1 1 1 2 2 2 1 1 1 1 0 0 1 1 2 2 2 2 2 2 2 3 3
6 6 5 6 6 9 0 1 4 7 7 7 7 5 5 4 3 3 3 3 2 1 2 2 2 3 2 2 1 1 1 1 1 1 1 1 2 2 2 2 2 3 3 3
6 6 6 6 8 8 4 3 3 5 6 5 6 5 4 3 4 4 3 3 2 1 2 2 2 3 3 2 2 2 2 2 2 2 2 2 2 2 2 3 3 3 3 3
3 6 6 7 8 6 1 2 2 6 6 2 4 4 4 5 6 2 2 2 1 1 1 1 2 2 2 2 2 2 2 2 2 2 3 3 3 3 3 3 3 3 3 4
5 5 8 9 8 5 1 1 4 6 1 1 2 3 3 5 4 1 1 1 1 1 1 1 2 2 2 2 2 2 2 2 2 3 3 3 3 3 3 3 3 3 3 4
6 6 7 7 8 5 3 4 5 3 2 1 2 3 3 3 2 1 1 1 1 1 1 2 2 2 2 2 3 3 2 2 2 2 3 3 3 3 3 3 3 3 3 4
6 5 4 5 4 2 2 3 3 3 3 2 3 3 3 3 2 2 2 2 2 2 2 2 2 2 2 2 3 3 3 3 2 2 3 3 3 3 3 3 3 3 3 3
4 3 6 6 6 5 4 4 4 4 4 4 3 3 3 3 3 3 3 3 2 2 2 2 3 3 2 2 3 3 3 3 3 3 3 3 3 3 3 3 3 2 2 3
4 5 6 8 6 5 5 5 5 4 3 3 2 2 3 3 4 4 3 3 3 3 3 3 3 4 3 3 3 3 3 3 4 4 3 3 3 3 3 3 2 3 3 2
6 7 7 6 5 6 4 3 4 4 4 3 3 3 3 3 4 4 4 3 3 3 3 4 4 4 4 3 3 3 3 4 4 3 3 3 2 2 3 3 2 1 3 1
Wind_Direction
180 209 204 214 268 312 264 265 275 297 247 252 258 265 246 220 223 238 230 223 220 217 204 191 187 184 185 188 191 180 180 174 166 168 176 174 175 176 163 159 160 151 160 143
189 207 216 163 164 219 225 246 269 288 249 264 274 274 254 228 230 242 242 230 225 215 195 189 191 184 187 189 191 184 188 178 176 179 180 180 172 176 149 148 157 163 167 161
223 151 141 183 200 227 238 254 268 284 283 237 265 249 212 187 211 236 245 240 239 224 208 192 193 191 188 193 190 187 189 183 184 181 175 164 162 175 167 166 166 181 191 183
228 208 199 217 231 244 256 269 259 256 259 256 253 279 186 193 212 231 233 216 217 206 205 194 194 195 194 194 191 187 186 187 185 185 186 187 186 182 178 175 165 178 184 190
199 208 228 241 252 244 276 283 248 250 258 262 238 264 207 166 249 251 218 199 204 191 188 187 191 192 193 190 190 189 185 188 188 188 187 202 198 188 175 173 174 181 180 192
228 218 254 269 256 219 194 207 221 231 246 252 251 256 269 81 333 341 317 183 188 186 174 167 163 167 170 173 181 183 186 186 187 191 198 201 197 193 185 190 189 193 192 195
203 197 197 220 202 182 221 240 243 224 219 237 120 250 317 35 3 338 331 79 162 154 156 149 147 156 158 166 174 175 180 186 189 194 203 204 204 205 206 207 206 210 205 203
230 209 186 213 242 239 229 254 269 284 276 244 196 246 78 51 30 27 54 78 96 112 131 137 138 151 162 161 167 174 171 182 189 194 201 206 201 212 221 220 220 218 221 215
249 217 143 193 255 254 234 239 283 280 275 272 236 193 139 96 71 72 80 85 83 86 108 121 125 133 144 151 158 169 173 177 187 194 195 197 200 206 217 221 224 220 218 213
273 254 202 170 190 173 284 239 227 247 267 255 242 236 224 124 76 79 83 79 72 71 76 94 115 128 131 138 149 161 175 182 190 194 194 198 209 209 215 221 222 226 226 216
260 249 207 197 223 230 202 212 237 249 266 280 269 165 54 14 91 95 84 73 66 65 77 91 106 122 127 125 129 151 186 197 198 199 202 204 205 210 215 217 220 225 226 222
251 262 245 228 157 303 258 249 244 254 250 260 278 305 87 95 108 108 85 74 72 65 82 98 96 103 112 123 142 161 191 215 216 211 213 216 206 203 215 220 219 219 223 221
239 250 243 208 186 189 222 236 250 263 261 254 257 224 116 124 136 117 98 84 76 73 88 97 91 83 79 85 140 166 172 239 229 211 215 214 216 213 220 227 225 222 221 218
259 252 260 271 310 265 242 235 238 247 254 254 254 261 231 239 237 237 255 22 73 86 95 87 77 71 61 54 45 318 294 276 269 227 223 224 231 227 227 231 226 226 226 224
258 255 256 271 280 264 263 257 245 247 259 266 270 267 265 261 259 248 235 224 163 124 123 128 86 27 21 25 26 330 296 300 280 258 248 250 242 229 233 233 229 227 231 236
252 255 252 251 248 255 258 256 247 248 254 256 261 263 268 266 249 234 221 204 198 192 233 289 316 324 332 354 335 273 270 305 290 275 273 273 259 246 239 241 240 236 236 241
226 244 254 254 250 256 249 247 240 239 240 248 256 266 247 237 228 231 218 205 213 231 262 286 309 321 321 306 278 275 292 273 244 262 267 268 259 252 251 242 237 239 236 238
239 241 250 261 249 247 323 91 241 243 245 250 263 267 247 240 231 231 219 216 224 253 282 301 315 318 313 302 272 234 233 236 238 255 268 274 278 272 261 254 251 247 244 236
245 236 240 248 254 257 227 209 225 241 249 247 256 257 248 227 215 215 209 222 232 264 299 307 312 310 304 299 276 247 234 238 246 261 272 276 273 269 267 267 266 264 260 251
210 236 242 239 253 257 202 127 224 245 243 220 244 247 229 215 235 213 154 199 232 265 310 329 320 316 313 306 266 246 240 238 248 264 273 277 274 262 262 267 272 274 267 263
197 213 233 241 248 256 54 142 194 230 302 86 239 245 227 238 280 352 154 222 245 276 313 315 305 305 312 298 267 259 262 265 278 281 277 273 270 264 261 266 267 269 269 269
228 224 226 233 241 239 115 174 220 293 14 285 266 261 249 261 291 292 263 261 252 257 274 284 286 295 302 291 270 266 276 290 287 282 279 279 279 278 272 265 266 265 265 264
231 247 252 243 264 2 180 226 280 301 275 271 269 263 252 255 268 276 271 269 270 270 276 278 281 287 287 282 276 273 285 288 277 268 268 272 277 276 279 271 261 262 261 263
222 245 244 248 250 252 252 253 257 265 272 276 271 259 247 250 257 263 267 271 274 274 273 272 272 275 277 278 276 280 281 271 262 259 265 269 272 278 283 280 269 262 257 259
249 223 240 248 257 258 243 243 253 260 266 268 270 264 260 260 265 271 275 277 277 275 272 268 267 268 267 267 271 276 276 263 257 258 261 264 269 276 279 277 279 270 272 283
223 229 244 259 262 260 260 258 254 253 257 264 265 270 273 270 267 271 275 276 273 272 272 268 269 268 265 261 266 269 265 259 259 261 265 266 266 267 266 270 268 247 256 282